Wetterdaten: Samstag, 11.04.2015
Datum Zeit Auen-Temp. Temp gefhlt Luftfeuchte Luftdruck Regen Wind Richtung Richtung Taupunkt Windben
11.04.2015 00:00 5,7 C 5,3 C 65 % 1020,9 hPa 0,0 mm 0,0 km/h (0 Bft) O-NO 67 -0,4 C 0,0 km/h (0 Bft)
11.04.2015 00:05 5,8 C 5,4 C 64 % 1020,8 hPa 0,0 mm 0,0 km/h (0 Bft) O-NO 67 -0,5 C 0,0 km/h (0 Bft)
11.04.2015 00:10 5,6 C 5,2 C 63 % 1020,8 hPa 0,0 mm 0,0 km/h (0 Bft) O-NO 67 -0,9 C 0,0 km/h (0 Bft)
11.04.2015 00:15 5,5 C 5,1 C 64 % 1020,8 hPa 0,0 mm 0,0 km/h (0 Bft) O-NO 67 -0,8 C 0,0 km/h (0 Bft)
11.04.2015 00:20 5,3 C 5,0 C 64 % 1020,8 hPa 0,0 mm 0,0 km/h (0 Bft) O-NO 67 -0,9 C 0,0 km/h (0 Bft)
11.04.2015 00:25 5,4 C 5,0 C 65 % 1020,9 hPa 0,0 mm 0,0 km/h (0 Bft) O-NO 67 -0,6 C 0,0 km/h (0 Bft)
11.04.2015 00:30 5,6 C 5,1 C 65 % 1020,9 hPa 0,0 mm 0,0 km/h (0 Bft) O-NO 67 -0,4 C 0,0 km/h (0 Bft)
11.04.2015 00:35 5,3 C 4,9 C 65 % 1020,9 hPa 0,0 mm 0,0 km/h (0 Bft) O-NO 67 -0,7 C 0,0 km/h (0 Bft)
11.04.2015 00:40 5,0 C 4,6 C 65 % 1020,9 hPa 0,0 mm 0,0 km/h (0 Bft) O-NO 67 -1,0 C 0,0 km/h (0 Bft)
11.04.2015 00:45 4,7 C 4,3 C 66 % 1021,0 hPa 0,0 mm 0,0 km/h (0 Bft) O-NO 67 -1,1 C 0,0 km/h (0 Bft)
11.04.2015 00:50 4,3 C 4,0 C 66 % 1021,0 hPa 0,0 mm 0,0 km/h (0 Bft) O-NO 67 -1,5 C 0,0 km/h (0 Bft)
11.04.2015 00:55 3,9 C 3,6 C 66 % 1021,0 hPa 0,0 mm 0,0 km/h (0 Bft) O-NO 67 -1,9 C 0,0 km/h (0 Bft)
11.04.2015 01:00 4,7 C 4,2 C 68 % 1021,0 hPa 0,0 mm 2,1 km/h (1 Bft) SO 135 -0,7 C 2,6 km/h (1 Bft)
11.04.2015 01:05 4,8 C 4,4 C 68 % 1021,1 hPa 0,0 mm 2,1 km/h (1 Bft) O-SO 112 -0,6 C 13,7 km/h (3 Bft)
11.04.2015 01:10 5,2 C 4,8 C 67 % 1021,1 hPa 0,0 mm 0,5 km/h (0 Bft) O-SO 112 -0,4 C 0,0 km/h (0 Bft)
11.04.2015 01:15 5,2 C 4,8 C 66 % 1021,1 hPa 0,0 mm 0,0 km/h (0 Bft) O-SO 112 -0,6 C 0,0 km/h (0 Bft)
11.04.2015 01:20 4,7 C 4,5 C 66 % 1021,1 hPa 0,0 mm 0,0 km/h (0 Bft) O-SO 112 -1,1 C 0,0 km/h (0 Bft)
11.04.2015 01:25 4,9 C 4,6 C 67 % 1021,0 hPa 0,0 mm 0,0 km/h (0 Bft) O-SO 112 -0,7 C 0,0 km/h (0 Bft)
11.04.2015 01:30 5,1 C 4,7 C 67 % 1021,0 hPa 0,0 mm 0,0 km/h (0 Bft) O-SO 112 -0,5 C 0,0 km/h (0 Bft)
11.04.2015 01:35 4,9 C 4,6 C 67 % 1021,0 hPa 0,0 mm 0,0 km/h (0 Bft) O-SO 112 -0,7 C 0,0 km/h (0 Bft)
11.04.2015 01:40 4,6 C 4,3 C 66 % 1021,0 hPa 0,0 mm 0,0 km/h (0 Bft) O-SO 112 -1,2 C 0,0 km/h (0 Bft)
11.04.2015 01:45 4,7 C 4,3 C 67 % 1020,9 hPa 0,0 mm 0,0 km/h (0 Bft) O-SO 112 -0,9 C 0,0 km/h (0 Bft)
11.04.2015 01:50 4,5 C 4,2 C 67 % 1020,9 hPa 0,0 mm 0,0 km/h (0 Bft) O-SO 112 -1,1 C 0,0 km/h (0 Bft)
11.04.2015 01:55 4,8 C 4,4 C 68 % 1020,9 hPa 0,0 mm 0,0 km/h (0 Bft) O 90 -0,6 C 0,0 km/h (0 Bft)
11.04.2015 02:00 5,0 C 4,5 C 67 % 1020,9 hPa 0,0 mm 0,0 km/h (0 Bft) O-SO 112 -0,6 C 0,0 km/h (0 Bft)
11.04.2015 02:05 4,5 C 4,2 C 67 % 1020,9 hPa 0,0 mm 0,0 km/h (0 Bft) O 90 -1,1 C 0,0 km/h (0 Bft)
11.04.2015 02:10 4,7 C 4,3 C 67 % 1020,9 hPa 0,0 mm 0,0 km/h (0 Bft) O 90 -0,9 C 0,0 km/h (0 Bft)
11.04.2015 02:15 4,9 C 4,4 C 68 % 1020,9 hPa 0,0 mm 0,0 km/h (0 Bft) O 90 -0,5 C 0,0 km/h (0 Bft)
11.04.2015 02:20 4,6 C 4,3 C 67 % 1020,9 hPa 0,0 mm 0,0 km/h (0 Bft) O 90 -1,0 C 0,0 km/h (0 Bft)
11.04.2015 02:25 4,7 C 4,3 C 68 % 1020,8 hPa 0,0 mm 0,0 km/h (0 Bft) O 90 -0,7 C 0,0 km/h (0 Bft)
11.04.2015 02:30 4,9 C 4,5 C 66 % 1020,8 hPa 0,0 mm 0,0 km/h (0 Bft) O-NO 67 -0,9 C 0,0 km/h (0 Bft)
11.04.2015 02:35 4,7 C 4,3 C 68 % 1020,8 hPa 0,0 mm 0,0 km/h (0 Bft) O-SO 112 -0,7 C 2,8 km/h (1 Bft)
11.04.2015 02:40 4,7 C 4,3 C 69 % 1020,8 hPa 0,0 mm 0,3 km/h (0 Bft) NO 45 -0,5 C 4,9 km/h (1 Bft)
11.04.2015 02:45 4,6 C 4,3 C 69 % 1020,9 hPa 0,0 mm 0,5 km/h (0 Bft) N 360 -0,6 C 2,8 km/h (1 Bft)
11.04.2015 02:50 4,4 C 4,2 C 68 % 1020,9 hPa 0,0 mm 0,3 km/h (0 Bft) NO 45 -1,0 C 0,0 km/h (0 Bft)
11.04.2015 02:55 4,7 C 4,3 C 69 % 1020,9 hPa 0,0 mm 0,0 km/h (0 Bft) O-NO 67 -0,5 C 0,0 km/h (0 Bft)
11.04.2015 03:00 4,7 C 4,3 C 69 % 1020,9 hPa 0,0 mm 0,0 km/h (0 Bft) O-NO 67 -0,5 C 0,0 km/h (0 Bft)
11.04.2015 03:05 4,6 C 4,3 C 68 % 1020,8 hPa 0,0 mm 0,3 km/h (0 Bft) N-NO 22 -0,8 C 0,0 km/h (0 Bft)
11.04.2015 03:10 4,8 C 4,4 C 69 % 1020,8 hPa 0,0 mm 0,8 km/h (0 Bft) O-NO 67 -0,4 C 2,8 km/h (1 Bft)
11.04.2015 03:15 4,8 C 4,6 C 69 % 1020,8 hPa 0,0 mm 1,3 km/h (1 Bft) S-SW 202 -0,4 C 4,1 km/h (1 Bft)
11.04.2015 03:20 5,2 C 5,0 C 69 % 1020,8 hPa 0,0 mm 2,3 km/h (1 Bft) W-NW 292 -0,0 C 6,2 km/h (2 Bft)
11.04.2015 03:25 7,1 C 6,8 C 64 % 1021,1 hPa 0,0 mm 6,5 km/h (2 Bft) S 180 0,8 C 16,8 km/h (3 Bft)
11.04.2015 03:30 7,3 C 7,2 C 62 % 1021,1 hPa 0,0 mm 8,3 km/h (2 Bft) S-SW 202 0,5 C 15,0 km/h (3 Bft)
11.04.2015 03:35 8,9 C 8,5 C 58 % 1021,1 hPa 0,0 mm 10,1 km/h (2 Bft) SW 225 1,1 C 19,9 km/h (4 Bft)
11.04.2015 03:40 9,2 C 8,8 C 57 % 1021,1 hPa 0,0 mm 11,9 km/h (2 Bft) W-SW 247 1,1 C 13,5 km/h (3 Bft)
11.04.2015 03:45 9,4 C 9,1 C 55 % 1021,1 hPa 0,0 mm 11,4 km/h (2 Bft) W-SW 247 0,8 C 12,2 km/h (2 Bft)
11.04.2015 03:50 9,4 C 9,2 C 55 % 1021,1 hPa 0,0 mm 10,6 km/h (2 Bft) S 180 0,8 C 8,5 km/h (2 Bft)
11.04.2015 03:55 9,6 C 9,4 C 54 % 1021,1 hPa 0,0 mm 10,1 km/h (2 Bft) SW 225 0,8 C 8,5 km/h (2 Bft)
11.04.2015 04:00 9,4 C 9,3 C 54 % 1021,1 hPa 0,0 mm 9,6 km/h (2 Bft) W-SW 247 0,6 C 14,2 km/h (3 Bft)
11.04.2015 04:05 9,5 C 9,4 C 54 % 1021,2 hPa 0,0 mm 9,6 km/h (2 Bft) W-SW 247 0,7 C 15,5 km/h (3 Bft)
11.04.2015 04:10 9,8 C 9,6 C 54 % 1021,2 hPa 0,0 mm 10,6 km/h (2 Bft) SW 225 0,9 C 16,3 km/h (3 Bft)
11.04.2015 04:15 10,0 C 9,7 C 53 % 1021,2 hPa 0,0 mm 11,4 km/h (2 Bft) SW 225 0,9 C 20,2 km/h (4 Bft)
11.04.2015 04:20 10,4 C 10,0 C 52 % 1021,2 hPa 0,0 mm 12,2 km/h (2 Bft) SW 225 1,0 C 19,9 km/h (4 Bft)
11.04.2015 04:25 10,5 C 10,2 C 51 % 1021,2 hPa 0,0 mm 11,7 km/h (2 Bft) W 270 0,8 C 30,0 km/h (5 Bft)
11.04.2015 04:30 10,7 C 10,4 C 51 % 1021,2 hPa 0,0 mm 11,9 km/h (2 Bft) W-SW 247 1,0 C 17,6 km/h (3 Bft)
11.04.2015 04:35 10,8 C 10,5 C 49 % 1021,2 hPa 0,0 mm 11,7 km/h (2 Bft) W 270 0,5 C 15,5 km/h (3 Bft)
11.04.2015 04:40 10,8 C 10,6 C 49 % 1021,2 hPa 0,0 mm 11,7 km/h (2 Bft) W-SW 247 0,5 C 12,4 km/h (3 Bft)
11.04.2015 04:45 10,6 C 10,5 C 49 % 1021,3 hPa 0,0 mm 9,6 km/h (2 Bft) SW 225 0,3 C 17,6 km/h (3 Bft)
11.04.2015 04:50 11,1 C 10,8 C 48 % 1021,3 hPa 0,0 mm 10,4 km/h (2 Bft) W-SW 247 0,5 C 26,4 km/h (4 Bft)
11.04.2015 04:55 11,1 C 10,9 C 48 % 1021,3 hPa 0,0 mm 12,7 km/h (3 Bft) W 270 0,5 C 24,3 km/h (4 Bft)
11.04.2015 05:00 10,9 C 10,7 C 48 % 1021,3 hPa 0,0 mm 11,4 km/h (2 Bft) S-SW 202 0,3 C 11,9 km/h (2 Bft)
11.04.2015 05:05 10,9 C 10,7 C 48 % 1021,2 hPa 0,0 mm 10,1 km/h (2 Bft) W-SW 247 0,3 C 10,9 km/h (2 Bft)
11.04.2015 05:10 11,0 C 10,8 C 48 % 1021,2 hPa 0,0 mm 10,4 km/h (2 Bft) SW 225 0,4 C 17,1 km/h (3 Bft)
11.04.2015 05:15 10,9 C 10,7 C 47 % 1021,2 hPa 0,0 mm 10,6 km/h (2 Bft) W-SW 247 0,0 C 14,2 km/h (3 Bft)
11.04.2015 05:20 11,1 C 10,8 C 47 % 1021,2 hPa 0,0 mm 11,4 km/h (2 Bft) W-SW 247 0,2 C 14,0 km/h (3 Bft)
11.04.2015 05:25 11,0 C 10,8 C 47 % 1021,5 hPa 0,0 mm 11,1 km/h (2 Bft) SW 225 0,1 C 16,1 km/h (3 Bft)
11.04.2015 05:30 10,9 C 10,8 C 47 % 1021,5 hPa 0,0 mm 9,6 km/h (2 Bft) NW 315 0,0 C 11,4 km/h (2 Bft)
11.04.2015 05:35 11,0 C 10,9 C 47 % 1021,5 hPa 0,0 mm 9,1 km/h (2 Bft) S 180 0,1 C 15,0 km/h (3 Bft)
11.04.2015 05:40 11,0 C 10,9 C 47 % 1021,5 hPa 0,0 mm 9,1 km/h (2 Bft) W 270 0,1 C 11,4 km/h (2 Bft)
11.04.2015 05:45 10,8 C 10,8 C 47 % 1021,4 hPa 0,0 mm 7,8 km/h (2 Bft) W 270 -0,1 C 8,5 km/h (2 Bft)
11.04.2015 05:50 10,7 C 10,8 C 47 % 1021,4 hPa 0,0 mm 6,5 km/h (2 Bft) SW 225 -0,1 C 19,9 km/h (4 Bft)
11.04.2015 05:55 10,9 C 10,8 C 47 % 1021,4 hPa 0,0 mm 8,5 km/h (2 Bft) W 270 0,0 C 11,1 km/h (2 Bft)
11.04.2015 06:00 10,9 C 10,7 C 47 % 1021,4 hPa 0,0 mm 9,8 km/h (2 Bft) W-SW 247 0,0 C 10,4 km/h (2 Bft)
11.04.2015 06:05 11,0 C 10,8 C 47 % 1021,7 hPa 0,0 mm 11,1 km/h (2 Bft) W-SW 247 0,1 C 30,6 km/h (5 Bft)
11.04.2015 06:10 11,0 C 10,8 C 47 % 1021,7 hPa 0,0 mm 12,4 km/h (3 Bft) W-SW 247 0,1 C 15,0 km/h (3 Bft)
11.04.2015 06:15 10,8 C 10,6 C 47 % 1021,7 hPa 0,0 mm 10,4 km/h (2 Bft) SW 225 -0,1 C 8,3 km/h (2 Bft)
11.04.2015 06:20 10,7 C 10,6 C 48 % 1021,7 hPa 0,0 mm 9,6 km/h (2 Bft) SW 225 0,1 C 16,1 km/h (3 Bft)
11.04.2015 06:25 10,7 C 10,4 C 48 % 1021,9 hPa 0,0 mm 11,4 km/h (2 Bft) W 270 0,1 C 31,1 km/h (5 Bft)
11.04.2015 06:30 10,6 C 10,4 C 48 % 1021,9 hPa 0,0 mm 12,4 km/h (3 Bft) SW 225 0,1 C 17,9 km/h (3 Bft)
11.04.2015 06:35 10,4 C 10,2 C 49 % 1021,9 hPa 0,0 mm 11,1 km/h (2 Bft) W-SW 247 0,2 C 10,4 km/h (2 Bft)
11.04.2015 06:40 10,4 C 10,1 C 50 % 1021,9 hPa 0,0 mm 11,7 km/h (2 Bft) W-SW 247 0,4 C 31,6 km/h (5 Bft)
11.04.2015 06:45 10,2 C 9,9 C 51 % 1022,2 hPa 0,0 mm 11,9 km/h (2 Bft) W 270 0,5 C 10,1 km/h (2 Bft)
11.04.2015 06:50 10,0 C 9,8 C 51 % 1022,2 hPa 0,0 mm 10,6 km/h (2 Bft) SW 225 0,3 C 11,1 km/h (2 Bft)
11.04.2015 06:55 10,0 C 9,8 C 52 % 1022,2 hPa 0,0 mm 9,8 km/h (2 Bft) W-NW 292 0,6 C 7,3 km/h (2 Bft)
11.04.2015 07:00 9,9 C 9,6 C 53 % 1022,2 hPa 0,0 mm 10,1 km/h (2 Bft) W-SW 247 0,8 C 15,0 km/h (3 Bft)
11.04.2015 07:05 9,9 C 9,6 C 53 % 1022,4 hPa 0,0 mm 10,4 km/h (2 Bft) W 270 0,8 C 17,9 km/h (3 Bft)
11.04.2015 07:10 9,8 C 9,6 C 53 % 1022,4 hPa 0,0 mm 10,1 km/h (2 Bft) W-SW 247 0,7 C 6,0 km/h (2 Bft)
11.04.2015 07:15 9,5 C 9,3 C 54 % 1022,4 hPa 0,0 mm 9,3 km/h (2 Bft) W 270 0,7 C 9,8 km/h (2 Bft)
11.04.2015 07:20 9,5 C 9,3 C 54 % 1022,4 hPa 0,0 mm 9,3 km/h (2 Bft) S-SW 202 0,7 C 17,3 km/h (3 Bft)
11.04.2015 07:25 9,4 C 9,2 C 55 % 1022,6 hPa 0,0 mm 8,8 km/h (2 Bft) S 180 0,8 C 6,7 km/h (2 Bft)
11.04.2015 07:30 9,4 C 9,3 C 55 % 1022,6 hPa 0,0 mm 8,3 km/h (2 Bft) S-SW 202 0,8 C 8,0 km/h (2 Bft)
11.04.2015 07:35 9,5 C 9,4 C 55 % 1022,6 hPa 0,0 mm 7,3 km/h (2 Bft) SW 225 0,9 C 8,0 km/h (2 Bft)
11.04.2015 07:40 9,7 C 9,6 C 55 % 1022,6 hPa 0,0 mm 7,3 km/h (2 Bft) W 270 1,1 C 8,3 km/h (2 Bft)
11.04.2015 07:45 10,0 C 10,9 C 55 % 1022,9 hPa 0,0 mm 7,5 km/h (2 Bft) W 270 1,4 C 8,8 km/h (2 Bft)
11.04.2015 07:50 10,2 C 11,9 C 55 % 1022,9 hPa 0,0 mm 7,5 km/h (2 Bft) W-SW 247 1,6 C 8,5 km/h (2 Bft)
11.04.2015 07:55 10,4 C 12,6 C 55 % 1022,9 hPa 0,0 mm 8,0 km/h (2 Bft) W 270 1,8 C 9,3 km/h (2 Bft)
11.04.2015 08:00 10,1 C 12,1 C 55 % 1022,9 hPa 0,0 mm 7,5 km/h (2 Bft) W-SW 247 1,5 C 5,7 km/h (1 Bft)
11.04.2015 08:05 10,0 C 11,3 C 55 % 1022,8 hPa 0,0 mm 7,5 km/h (2 Bft) SW 225 1,4 C 14,5 km/h (3 Bft)
11.04.2015 08:10 10,2 C 10,7 C 55 % 1022,8 hPa 0,0 mm 8,8 km/h (2 Bft) NW 315 1,6 C 19,4 km/h (3 Bft)
11.04.2015 08:15 10,3 C 10,8 C 55 % 1022,8 hPa 0,0 mm 9,3 km/h (2 Bft) W-SW 247 1,7 C 9,1 km/h (2 Bft)
11.04.2015 08:20 10,4 C 10,9 C 55 % 1022,8 hPa 0,0 mm 9,3 km/h (2 Bft) W-SW 247 1,8 C 15,5 km/h (3 Bft)
11.04.2015 08:25 10,9 C 12,4 C 55 % 1023,0 hPa 0,0 mm 9,6 km/h (2 Bft) W-SW 247 2,2 C 15,3 km/h (3 Bft)
11.04.2015 08:30 11,1 C 13,8 C 55 % 1023,0 hPa 0,0 mm 9,6 km/h (2 Bft) W 270 2,4 C 14,2 km/h (3 Bft)
11.04.2015 08:35 11,6 C 15,0 C 54 % 1023,0 hPa 0,0 mm 8,8 km/h (2 Bft) W 270 2,6 C 4,4 km/h (1 Bft)
11.04.2015 08:40 11,7 C 15,5 C 54 % 1023,0 hPa 0,0 mm 8,3 km/h (2 Bft) W-SW 247 2,7 C 12,2 km/h (2 Bft)
11.04.2015 08:45 11,7 C 15,4 C 54 % 1023,2 hPa 0,0 mm 8,8 km/h (2 Bft) SW 225 2,7 C 14,5 km/h (3 Bft)
11.04.2015 08:50 11,4 C 14,5 C 54 % 1023,2 hPa 0,0 mm 9,8 km/h (2 Bft) W-SW 247 2,4 C 11,7 km/h (2 Bft)
11.04.2015 08:55 11,3 C 13,4 C 54 % 1023,2 hPa 0,0 mm 9,8 km/h (2 Bft) W-SW 247 2,3 C 11,1 km/h (2 Bft)
11.04.2015 09:00 11,1 C 12,8 C 54 % 1023,2 hPa 0,0 mm 9,3 km/h (2 Bft) SW 225 2,2 C 7,3 km/h (2 Bft)
11.04.2015 09:05 11,1 C 12,6 C 54 % 1023,2 hPa 0,0 mm 7,3 km/h (2 Bft) W-SW 247 2,2 C 11,1 km/h (2 Bft)
11.04.2015 09:10 11,1 C 12,4 C 54 % 1023,2 hPa 0,0 mm 7,0 km/h (2 Bft) W 270 2,2 C 11,9 km/h (2 Bft)
11.04.2015 09:15 11,1 C 12,0 C 54 % 1023,2 hPa 0,0 mm 8,8 km/h (2 Bft) SW 225 2,2 C 12,2 km/h (2 Bft)
11.04.2015 09:20 11,3 C 12,2 C 54 % 1023,2 hPa 0,0 mm 8,3 km/h (2 Bft) W-SW 247 2,3 C 9,6 km/h (2 Bft)
11.04.2015 09:25 11,4 C 12,6 C 53 % 1023,4 hPa 0,0 mm 9,3 km/h (2 Bft) W 270 2,2 C 16,8 km/h (3 Bft)
11.04.2015 09:30 11,5 C 12,8 C 53 % 1023,4 hPa 0,0 mm 10,1 km/h (2 Bft) W-SW 247 2,3 C 10,6 km/h (2 Bft)
11.04.2015 09:35 11,8 C 13,8 C 53 % 1023,4 hPa 0,0 mm 9,1 km/h (2 Bft) W 270 2,5 C 7,5 km/h (2 Bft)
11.04.2015 09:40 11,9 C 13,9 C 53 % 1023,4 hPa 0,0 mm 7,0 km/h (2 Bft) W-SW 247 2,6 C 6,2 km/h (2 Bft)
11.04.2015 09:45 11,9 C 13,8 C 52 % 1023,7 hPa 0,0 mm 8,3 km/h (2 Bft) W 270 2,4 C 15,3 km/h (3 Bft)
11.04.2015 09:50 12,0 C 13,9 C 52 % 1023,7 hPa 0,0 mm 9,8 km/h (2 Bft) SW 225 2,5 C 6,2 km/h (2 Bft)
11.04.2015 09:55 12,7 C 15,2 C 52 % 1023,7 hPa 0,0 mm 11,7 km/h (2 Bft) W-SW 247 3,1 C 23,3 km/h (4 Bft)
11.04.2015 10:00 12,9 C 16,0 C 52 % 1023,7 hPa 0,0 mm 11,9 km/h (2 Bft) W 270 3,3 C 17,3 km/h (3 Bft)
11.04.2015 10:05 12,9 C 16,2 C 52 % 1023,7 hPa 0,0 mm 9,6 km/h (2 Bft) S 180 3,3 C 9,8 km/h (2 Bft)
11.04.2015 10:10 12,9 C 16,1 C 52 % 1023,7 hPa 0,0 mm 9,1 km/h (2 Bft) W 270 3,3 C 14,8 km/h (3 Bft)
11.04.2015 10:15 13,1 C 16,2 C 49 % 1023,7 hPa 0,0 mm 12,4 km/h (3 Bft) W 270 2,6 C 15,5 km/h (3 Bft)
11.04.2015 10:20 13,3 C 16,4 C 50 % 1023,7 hPa 0,0 mm 13,2 km/h (3 Bft) SW 225 3,1 C 6,2 km/h (2 Bft)
11.04.2015 10:25 13,6 C 17,4 C 49 % 1024,1 hPa 0,0 mm 11,1 km/h (2 Bft) W 270 3,1 C 23,3 km/h (4 Bft)
11.04.2015 10:30 13,8 C 18,0 C 49 % 1024,1 hPa 0,0 mm 10,6 km/h (2 Bft) W-SW 247 3,3 C 15,5 km/h (3 Bft)
11.04.2015 10:35 14,1 C 18,6 C 49 % 1024,1 hPa 0,0 mm 12,9 km/h (3 Bft) W-NW 292 3,6 C 17,1 km/h (3 Bft)
11.04.2015 10:40 14,2 C 18,9 C 48 % 1024,1 hPa 0,0 mm 12,4 km/h (3 Bft) W 270 3,4 C 7,8 km/h (2 Bft)
11.04.2015 10:45 14,3 C 19,2 C 48 % 1024,3 hPa 0,0 mm 12,4 km/h (3 Bft) W-SW 247 3,4 C 23,8 km/h (4 Bft)
11.04.2015 10:50 14,1 C 18,5 C 48 % 1024,3 hPa 0,0 mm 13,2 km/h (3 Bft) W 270 3,3 C 16,1 km/h (3 Bft)
11.04.2015 10:55 14,1 C 17,5 C 49 % 1024,3 hPa 0,0 mm 14,0 km/h (3 Bft) NW 315 3,6 C 24,3 km/h (4 Bft)
11.04.2015 11:00 13,9 C 16,8 C 49 % 1024,3 hPa 0,0 mm 12,7 km/h (3 Bft) W 270 3,4 C 16,3 km/h (3 Bft)
11.04.2015 11:05 13,7 C 16,3 C 49 % 1024,4 hPa 0,0 mm 13,7 km/h (3 Bft) W 270 3,2 C 17,9 km/h (3 Bft)
11.04.2015 11:10 13,7 C 15,8 C 50 % 1024,4 hPa 0,0 mm 11,7 km/h (2 Bft) W-NW 292 3,5 C 12,2 km/h (2 Bft)
11.04.2015 11:15 13,6 C 15,6 C 50 % 1024,4 hPa 0,0 mm 11,4 km/h (2 Bft) W-NW 292 3,4 C 24,3 km/h (4 Bft)
11.04.2015 11:20 13,3 C 15,4 C 49 % 1024,4 hPa 0,0 mm 12,7 km/h (3 Bft) W-SW 247 2,8 C 8,5 km/h (2 Bft)
11.04.2015 11:25 13,2 C 15,1 C 49 % 1024,4 hPa 0,0 mm 13,5 km/h (3 Bft) W 270 2,7 C 14,8 km/h (3 Bft)
11.04.2015 11:30 13,1 C 14,9 C 50 % 1024,4 hPa 0,0 mm 12,4 km/h (3 Bft) W 270 2,9 C 8,3 km/h (2 Bft)
11.04.2015 11:35 13,1 C 15,1 C 50 % 1024,4 hPa 0,0 mm 11,9 km/h (2 Bft) NW 315 2,9 C 8,8 km/h (2 Bft)
11.04.2015 11:40 13,2 C 15,1 C 50 % 1024,4 hPa 0,0 mm 11,7 km/h (2 Bft) W 270 3,0 C 15,0 km/h (3 Bft)
11.04.2015 11:45 13,3 C 15,2 C 50 % 1024,2 hPa 0,0 mm 11,4 km/h (2 Bft) W-NW 292 3,1 C 19,2 km/h (3 Bft)
11.04.2015 11:50 13,3 C 15,2 C 50 % 1024,2 hPa 0,0 mm 12,4 km/h (3 Bft) W-NW 292 3,1 C 15,3 km/h (3 Bft)
11.04.2015 11:55 13,4 C 15,2 C 51 % 1024,2 hPa 0,0 mm 11,1 km/h (2 Bft) SW 225 3,5 C 14,0 km/h (3 Bft)
11.04.2015 12:00 13,4 C 15,2 C 51 % 1024,2 hPa 0,0 mm 11,7 km/h (2 Bft) W-SW 247 3,5 C 14,2 km/h (3 Bft)
11.04.2015 12:05 13,6 C 15,3 C 51 % 1024,0 hPa 0,0 mm 12,9 km/h (3 Bft) W-NW 292 3,7 C 16,6 km/h (3 Bft)
11.04.2015 12:10 13,6 C 15,6 C 51 % 1024,0 hPa 0,0 mm 13,2 km/h (3 Bft) S 180 3,7 C 13,7 km/h (3 Bft)
11.04.2015 12:15 13,6 C 15,6 C 51 % 1024,0 hPa 0,0 mm 12,2 km/h (2 Bft) W 270 3,7 C 12,2 km/h (2 Bft)
11.04.2015 12:20 13,5 C 15,6 C 50 % 1024,0 hPa 0,0 mm 10,4 km/h (2 Bft) W 270 3,3 C 6,2 km/h (2 Bft)
11.04.2015 12:25 13,5 C 15,9 C 50 % 1024,2 hPa 0,0 mm 10,1 km/h (2 Bft) W 270 3,3 C 9,8 km/h (2 Bft)
11.04.2015 12:30 13,5 C 15,8 C 50 % 1024,2 hPa 0,0 mm 11,7 km/h (2 Bft) NW 315 3,3 C 11,9 km/h (2 Bft)
11.04.2015 12:35 13,8 C 15,9 C 50 % 1024,2 hPa 0,0 mm 13,7 km/h (3 Bft) W-NW 292 3,6 C 12,7 km/h (3 Bft)
11.04.2015 12:40 14,0 C 16,5 C 50 % 1024,2 hPa 0,0 mm 13,2 km/h (3 Bft) W 270 3,7 C 12,9 km/h (3 Bft)
11.04.2015 12:45 14,1 C 16,5 C 50 % 1024,0 hPa 0,0 mm 11,4 km/h (2 Bft) NW 315 3,8 C 7,8 km/h (2 Bft)
11.04.2015 12:50 14,1 C 16,4 C 50 % 1024,0 hPa 0,0 mm 10,9 km/h (2 Bft) W 270 3,8 C 17,6 km/h (3 Bft)
11.04.2015 12:55 13,9 C 15,8 C 50 % 1024,0 hPa 0,0 mm 11,4 km/h (2 Bft) W 270 3,7 C 11,9 km/h (2 Bft)
11.04.2015 13:00 14,1 C 15,9 C 50 % 1024,0 hPa 0,0 mm 12,2 km/h (2 Bft) NW 315 3,8 C 10,1 km/h (2 Bft)
11.04.2015 13:05 14,1 C 16,2 C 50 % 1023,8 hPa 0,0 mm 11,1 km/h (2 Bft) W-SW 247 3,8 C 10,6 km/h (2 Bft)
11.04.2015 13:10 14,1 C 16,2 C 50 % 1023,8 hPa 0,0 mm 10,6 km/h (2 Bft) W 270 3,8 C 14,5 km/h (3 Bft)
11.04.2015 13:15 14,0 C 16,0 C 50 % 1023,8 hPa 0,0 mm 9,3 km/h (2 Bft) W-SW 247 3,7 C 10,6 km/h (2 Bft)
11.04.2015 13:20 13,9 C 15,8 C 50 % 1023,8 hPa 0,0 mm 10,9 km/h (2 Bft) W 270 3,7 C 9,3 km/h (2 Bft)
11.04.2015 13:25 14,2 C 16,0 C 50 % 1023,9 hPa 0,0 mm 9,8 km/h (2 Bft) W 270 3,9 C 11,4 km/h (2 Bft)
11.04.2015 13:30 14,3 C 16,1 C 50 % 1023,9 hPa 0,0 mm 8,5 km/h (2 Bft) W-SW 247 4,0 C 5,4 km/h (1 Bft)
11.04.2015 13:35 14,7 C 16,8 C 50 % 1023,9 hPa 0,0 mm 8,3 km/h (2 Bft) SW 225 4,4 C 9,1 km/h (2 Bft)
11.04.2015 13:40 14,8 C 17,3 C 50 % 1023,9 hPa 0,0 mm 7,5 km/h (2 Bft) SW 225 4,5 C 2,8 km/h (1 Bft)
11.04.2015 13:45 15,8 C 19,1 C 49 % 1023,9 hPa 0,0 mm 7,8 km/h (2 Bft) W 270 5,1 C 10,6 km/h (2 Bft)
11.04.2015 13:50 15,8 C 19,3 C 48 % 1023,9 hPa 0,0 mm 10,9 km/h (2 Bft) W 270 4,8 C 25,1 km/h (4 Bft)
11.04.2015 13:55 15,6 C 18,5 C 47 % 1023,9 hPa 0,0 mm 16,1 km/h (3 Bft) W-NW 292 4,3 C 15,5 km/h (3 Bft)
11.04.2015 14:00 15,8 C 19,1 C 47 % 1023,9 hPa 0,0 mm 14,0 km/h (3 Bft) SW 225 4,5 C 11,1 km/h (2 Bft)
11.04.2015 14:05 16,1 C 19,9 C 46 % 1023,9 hPa 0,0 mm 10,1 km/h (2 Bft) W-SW 247 4,5 C 12,4 km/h (3 Bft)
11.04.2015 14:10 16,0 C 19,6 C 46 % 1023,9 hPa 0,0 mm 12,2 km/h (2 Bft) W 270 4,4 C 17,6 km/h (3 Bft)
11.04.2015 14:15 15,7 C 18,9 C 46 % 1023,9 hPa 0,0 mm 12,7 km/h (3 Bft) W 270 4,1 C 13,7 km/h (3 Bft)
11.04.2015 14:20 15,5 C 18,6 C 46 % 1023,9 hPa 0,0 mm 11,9 km/h (2 Bft) W 270 3,9 C 16,8 km/h (3 Bft)
11.04.2015 14:25 15,3 C 18,1 C 46 % 1024,1 hPa 0,0 mm 10,4 km/h (2 Bft) W-SW 247 3,8 C 11,9 km/h (2 Bft)
11.04.2015 14:30 15,1 C 17,8 C 45 % 1024,1 hPa 0,0 mm 10,6 km/h (2 Bft) W 270 3,3 C 14,2 km/h (3 Bft)
11.04.2015 14:35 15,2 C 17,5 C 46 % 1024,1 hPa 0,0 mm 10,6 km/h (2 Bft) W 270 3,7 C 18,6 km/h (3 Bft)
11.04.2015 14:40 15,1 C 17,3 C 47 % 1024,1 hPa 0,0 mm 10,1 km/h (2 Bft) W-SW 247 3,9 C 12,4 km/h (3 Bft)
11.04.2015 14:45 15,0 C 17,0 C 48 % 1024,1 hPa 0,0 mm 11,7 km/h (2 Bft) NW 315 4,1 C 23,8 km/h (4 Bft)
11.04.2015 14:50 15,2 C 17,0 C 48 % 1024,1 hPa 0,0 mm 11,7 km/h (2 Bft) W 270 4,3 C 6,7 km/h (2 Bft)
11.04.2015 14:55 15,7 C 18,1 C 48 % 1024,1 hPa 0,0 mm 10,6 km/h (2 Bft) W-SW 247 4,7 C 24,6 km/h (4 Bft)
11.04.2015 15:00 15,6 C 18,2 C 47 % 1024,1 hPa 0,0 mm 10,9 km/h (2 Bft) W-SW 247 4,3 C 9,3 km/h (2 Bft)
11.04.2015 15:05 15,4 C 18,0 C 46 % 1023,9 hPa 0,0 mm 12,9 km/h (3 Bft) SW 225 3,8 C 14,2 km/h (3 Bft)
11.04.2015 15:10 15,4 C 17,6 C 46 % 1023,9 hPa 0,0 mm 12,7 km/h (3 Bft) W 270 3,8 C 14,0 km/h (3 Bft)
11.04.2015 15:15 15,6 C 18,0 C 46 % 1023,9 hPa 0,0 mm 12,4 km/h (3 Bft) W 270 4,0 C 16,3 km/h (3 Bft)
11.04.2015 15:20 15,6 C 18,0 C 45 % 1023,9 hPa 0,0 mm 11,9 km/h (2 Bft) W-SW 247 3,7 C 13,7 km/h (3 Bft)
11.04.2015 15:25 15,7 C 18,0 C 46 % 1023,9 hPa 0,0 mm 10,6 km/h (2 Bft) W 270 4,1 C 16,8 km/h (3 Bft)
11.04.2015 15:30 15,7 C 18,4 C 45 % 1023,9 hPa 0,0 mm 12,2 km/h (2 Bft) W 270 3,8 C 18,4 km/h (3 Bft)
11.04.2015 15:35 15,5 C 17,9 C 45 % 1023,9 hPa 0,0 mm 15,3 km/h (3 Bft) W 270 3,6 C 19,4 km/h (3 Bft)
11.04.2015 15:40 15,2 C 17,2 C 45 % 1023,9 hPa 0,0 mm 15,8 km/h (3 Bft) W-SW 247 3,4 C 12,4 km/h (3 Bft)
11.04.2015 15:45 14,7 C 16,5 C 45 % 1024,1 hPa 0,0 mm 16,6 km/h (3 Bft) NW 315 2,9 C 38,1 km/h (5 Bft)
11.04.2015 15:50 14,4 C 15,7 C 45 % 1024,1 hPa 0,0 mm 16,3 km/h (3 Bft) NW 315 2,6 C 15,3 km/h (3 Bft)
11.04.2015 15:55 14,2 C 15,1 C 44 % 1024,1 hPa 0,0 mm 18,6 km/h (3 Bft) W 270 2,1 C 33,7 km/h (5 Bft)
11.04.2015 16:00 14,0 C 14,6 C 44 % 1024,1 hPa 0,0 mm 19,4 km/h (3 Bft) W 270 1,9 C 33,1 km/h (5 Bft)
11.04.2015 16:05 13,8 C 14,4 C 45 % 1024,3 hPa 0,0 mm 18,6 km/h (3 Bft) W-SW 247 2,1 C 39,1 km/h (6 Bft)
11.04.2015 16:10 13,6 C 14,1 C 44 % 1024,3 hPa 0,0 mm 18,4 km/h (3 Bft) W 270 1,6 C 35,0 km/h (5 Bft)
11.04.2015 16:15 13,4 C 14,0 C 45 % 1024,3 hPa 0,0 mm 16,8 km/h (3 Bft) W 270 1,7 C 25,4 km/h (4 Bft)
11.04.2015 16:20 13,5 C 14,1 C 46 % 1024,3 hPa 0,0 mm 13,2 km/h (3 Bft) W 270 2,1 C 13,7 km/h (3 Bft)
11.04.2015 16:25 13,4 C 14,2 C 45 % 1024,3 hPa 0,0 mm 12,4 km/h (3 Bft) W-SW 247 1,7 C 11,7 km/h (2 Bft)
11.04.2015 16:30 13,4 C 14,2 C 45 % 1024,3 hPa 0,0 mm 12,9 km/h (3 Bft) W-SW 247 1,7 C 14,8 km/h (3 Bft)
11.04.2015 16:35 13,4 C 14,2 C 46 % 1024,3 hPa 0,0 mm 12,7 km/h (3 Bft) W 270 2,0 C 11,1 km/h (2 Bft)
11.04.2015 16:40 13,5 C 14,7 C 46 % 1024,3 hPa 0,0 mm 11,4 km/h (2 Bft) W 270 2,1 C 13,5 km/h (3 Bft)
11.04.2015 16:45 13,4 C 14,7 C 46 % 1024,4 hPa 0,0 mm 10,4 km/h (2 Bft) N-NW 337 2,0 C 19,9 km/h (4 Bft)
11.04.2015 16:50 13,4 C 14,6 C 46 % 1024,4 hPa 0,0 mm 11,1 km/h (2 Bft) W-NW 292 2,0 C 17,6 km/h (3 Bft)
11.04.2015 16:55 13,0 C 14,0 C 47 % 1024,4 hPa 0,0 mm 12,2 km/h (2 Bft) W-SW 247 2,0 C 18,1 km/h (3 Bft)
11.04.2015 17:00 12,9 C 14,0 C 48 % 1024,4 hPa 0,0 mm 12,7 km/h (3 Bft) W-SW 247 2,2 C 11,7 km/h (2 Bft)
11.04.2015 17:05 12,8 C 13,6 C 48 % 1024,6 hPa 0,0 mm 13,7 km/h (3 Bft) W-NW 292 2,1 C 21,8 km/h (4 Bft)
11.04.2015 17:10 12,6 C 13,2 C 49 % 1024,6 hPa 0,0 mm 16,3 km/h (3 Bft) W 270 2,2 C 16,6 km/h (3 Bft)
11.04.2015 17:15 12,5 C 12,9 C 49 % 1024,6 hPa 0,0 mm 17,3 km/h (3 Bft) W-SW 247 2,1 C 11,7 km/h (2 Bft)
11.04.2015 17:20 12,6 C 13,0 C 49 % 1024,6 hPa 0,0 mm 15,0 km/h (3 Bft) O-SO 112 2,2 C 30,3 km/h (5 Bft)
11.04.2015 17:25 12,5 C 13,1 C 51 % 1024,7 hPa 0,0 mm 11,7 km/h (2 Bft) W 270 2,6 C 19,9 km/h (4 Bft)
11.04.2015 17:30 12,4 C 13,0 C 51 % 1024,7 hPa 0,0 mm 12,9 km/h (3 Bft) S-SW 202 2,6 C 13,7 km/h (3 Bft)
11.04.2015 17:35 12,2 C 12,6 C 51 % 1024,7 hPa 0,0 mm 14,5 km/h (3 Bft) W-SW 247 2,4 C 13,2 km/h (3 Bft)
11.04.2015 17:40 12,1 C 12,5 C 51 % 1024,7 hPa 0,0 mm 13,7 km/h (3 Bft) W-SW 247 2,3 C 22,0 km/h (4 Bft)
11.04.2015 17:45 12,1 C 12,6 C 52 % 1024,8 hPa 0,0 mm 10,9 km/h (2 Bft) SW 225 2,5 C 11,1 km/h (2 Bft)
11.04.2015 17:50 12,1 C 12,7 C 52 % 1024,8 hPa 0,0 mm 10,4 km/h (2 Bft) W 270 2,5 C 7,5 km/h (2 Bft)
11.04.2015 17:55 12,0 C 12,7 C 52 % 1024,8 hPa 0,0 mm 9,3 km/h (2 Bft) W-SW 247 2,5 C 12,4 km/h (3 Bft)
11.04.2015 18:00 11,9 C 12,6 C 52 % 1024,8 hPa 0,0 mm 8,5 km/h (2 Bft) W-SW 247 2,4 C 8,3 km/h (2 Bft)
11.04.2015 18:05 12,0 C 12,7 C 52 % 1024,8 hPa 0,0 mm 7,0 km/h (2 Bft) W 270 2,5 C 7,0 km/h (2 Bft)
11.04.2015 18:10 12,0 C 12,7 C 53 % 1024,8 hPa 0,0 mm 6,2 km/h (2 Bft) W-SW 247 2,7 C 4,1 km/h (1 Bft)
11.04.2015 18:15 11,9 C 12,6 C 53 % 1024,8 hPa 0,0 mm 7,3 km/h (2 Bft) W-SW 247 2,6 C 10,4 km/h (2 Bft)
11.04.2015 18:20 11,9 C 12,6 C 53 % 1024,8 hPa 0,0 mm 8,3 km/h (2 Bft) W-SW 247 2,6 C 19,2 km/h (3 Bft)
11.04.2015 18:25 11,8 C 12,1 C 53 % 1025,1 hPa 0,0 mm 9,3 km/h (2 Bft) SO 135 2,5 C 12,7 km/h (3 Bft)
11.04.2015 18:30 11,8 C 12,0 C 54 % 1025,1 hPa 0,0 mm 10,1 km/h (2 Bft) NW 315 2,8 C 13,5 km/h (3 Bft)
11.04.2015 18:35 11,7 C 11,9 C 54 % 1025,1 hPa 0,0 mm 10,4 km/h (2 Bft) W-NW 292 2,7 C 11,9 km/h (2 Bft)
11.04.2015 18:40 11,7 C 11,9 C 54 % 1025,1 hPa 0,0 mm 12,7 km/h (3 Bft) W-SW 247 2,7 C 18,1 km/h (3 Bft)
11.04.2015 18:45 11,8 C 11,8 C 54 % 1025,3 hPa 0,0 mm 13,5 km/h (3 Bft) W 270 2,8 C 16,6 km/h (3 Bft)
11.04.2015 18:50 11,7 C 11,7 C 55 % 1025,3 hPa 0,0 mm 12,7 km/h (3 Bft) NW 315 3,0 C 18,4 km/h (3 Bft)
11.04.2015 18:55 11,5 C 11,5 C 55 % 1025,3 hPa 0,0 mm 14,0 km/h (3 Bft) W-SW 247 2,8 C 32,4 km/h (5 Bft)
11.04.2015 19:00 11,3 C 11,2 C 55 % 1025,3 hPa 0,0 mm 15,5 km/h (3 Bft) W 270 2,6 C 22,8 km/h (4 Bft)
11.04.2015 19:05 11,0 C 10,9 C 56 % 1025,6 hPa 0,0 mm 14,5 km/h (3 Bft) W-SW 247 2,6 C 11,4 km/h (2 Bft)
11.04.2015 19:10 10,9 C 10,7 C 56 % 1025,6 hPa 0,0 mm 14,5 km/h (3 Bft) W-SW 247 2,5 C 22,0 km/h (4 Bft)
11.04.2015 19:15 10,7 C 10,5 C 57 % 1025,6 hPa 0,0 mm 15,0 km/h (3 Bft) W-SW 247 2,5 C 19,2 km/h (3 Bft)
11.04.2015 19:20 10,6 C 10,3 C 57 % 1025,6 hPa 0,0 mm 16,6 km/h (3 Bft) NW 315 2,4 C 18,1 km/h (3 Bft)
11.04.2015 19:25 10,3 C 9,9 C 59 % 1025,6 hPa 0,0 mm 16,6 km/h (3 Bft) W 270 2,6 C 14,2 km/h (3 Bft)
11.04.2015 19:30 10,1 C 9,5 C 59 % 1025,6 hPa 0,0 mm 13,7 km/h (3 Bft) W-NW 292 2,5 C 12,7 km/h (3 Bft)
11.04.2015 19:35 9,9 C 9,5 C 59 % 1025,6 hPa 0,0 mm 10,4 km/h (2 Bft) W 270 2,3 C 7,3 km/h (2 Bft)
11.04.2015 19:40 9,8 C 9,6 C 60 % 1025,6 hPa 0,0 mm 8,5 km/h (2 Bft) SW 225 2,4 C 11,7 km/h (2 Bft)
11.04.2015 19:45 9,6 C 9,4 C 60 % 1025,8 hPa 0,0 mm 8,8 km/h (2 Bft) W-SW 247 2,2 C 6,0 km/h (2 Bft)
11.04.2015 19:50 9,4 C 9,2 C 61 % 1025,8 hPa 0,0 mm 8,8 km/h (2 Bft) W-SW 247 2,3 C 10,6 km/h (2 Bft)
11.04.2015 19:55 9,2 C 8,9 C 62 % 1025,8 hPa 0,0 mm 8,5 km/h (2 Bft) W-NW 292 2,3 C 8,0 km/h (2 Bft)
11.04.2015 20:00 9,0 C 8,8 C 62 % 1025,8 hPa 0,0 mm 7,5 km/h (2 Bft) W-SW 247 2,1 C 3,9 km/h (1 Bft)
11.04.2015 20:05 8,9 C 8,7 C 64 % 1026,1 hPa 0,0 mm 6,7 km/h (2 Bft) W 270 2,5 C 12,7 km/h (3 Bft)
11.04.2015 20:10 8,8 C 8,5 C 64 % 1026,1 hPa 0,0 mm 7,8 km/h (2 Bft) S-SW 202 2,4 C 12,2 km/h (2 Bft)
11.04.2015 20:15 8,6 C 8,3 C 64 % 1026,1 hPa 0,0 mm 8,5 km/h (2 Bft) W-SW 247 2,2 C 10,9 km/h (2 Bft)
11.04.2015 20:20 8,6 C 8,3 C 65 % 1026,1 hPa 0,0 mm 7,5 km/h (2 Bft) SW 225 2,4 C 10,1 km/h (2 Bft)
11.04.2015 20:25 8,6 C 8,3 C 66 % 1026,1 hPa 0,0 mm 7,8 km/h (2 Bft) SW 225 2,6 C 11,4 km/h (2 Bft)
11.04.2015 20:30 8,6 C 8,2 C 65 % 1026,1 hPa 0,0 mm 8,3 km/h (2 Bft) SW 225 2,4 C 11,9 km/h (2 Bft)
11.04.2015 20:35 8,6 C 8,3 C 66 % 1026,1 hPa 0,0 mm 7,5 km/h (2 Bft) W-SW 247 2,6 C 6,2 km/h (2 Bft)
11.04.2015 20:40 8,5 C 8,2 C 65 % 1026,1 hPa 0,0 mm 7,5 km/h (2 Bft) S 180 2,3 C 9,3 km/h (2 Bft)
11.04.2015 20:45 8,6 C 8,3 C 66 % 1026,4 hPa 0,0 mm 7,8 km/h (2 Bft) SW 225 2,6 C 11,9 km/h (2 Bft)
11.04.2015 20:50 8,6 C 8,3 C 66 % 1026,4 hPa 0,0 mm 7,8 km/h (2 Bft) W-SW 247 2,6 C 6,0 km/h (2 Bft)
11.04.2015 20:55 8,6 C 8,3 C 65 % 1026,4 hPa 0,0 mm 7,0 km/h (2 Bft) W-NW 292 2,4 C 4,7 km/h (1 Bft)
11.04.2015 21:00 8,5 C 8,2 C 65 % 1026,4 hPa 0,0 mm 7,0 km/h (2 Bft) W-SW 247 2,3 C 7,8 km/h (2 Bft)
11.04.2015 21:05 8,5 C 8,3 C 65 % 1026,3 hPa 0,0 mm 6,7 km/h (2 Bft) W-SW 247 2,3 C 7,8 km/h (2 Bft)
11.04.2015 21:10 8,5 C 8,2 C 65 % 1026,3 hPa 0,0 mm 7,0 km/h (2 Bft) SW 225 2,3 C 7,0 km/h (2 Bft)
11.04.2015 21:15 8,4 C 8,2 C 65 % 1026,3 hPa 0,0 mm 6,5 km/h (2 Bft) W 270 2,2 C 15,8 km/h (3 Bft)
11.04.2015 21:20 8,5 C 8,2 C 65 % 1026,3 hPa 0,0 mm 7,0 km/h (2 Bft) SW 225 2,3 C 8,8 km/h (2 Bft)
11.04.2015 21:25 8,6 C 8,2 C 65 % 1026,6 hPa 0,0 mm 8,0 km/h (2 Bft) W-NW 292 2,4 C 6,5 km/h (2 Bft)
11.04.2015 21:30 8,5 C 8,2 C 65 % 1026,6 hPa 0,0 mm 7,8 km/h (2 Bft) S 180 2,3 C 10,1 km/h (2 Bft)
11.04.2015 21:35 8,5 C 8,2 C 65 % 1026,6 hPa 0,0 mm 8,0 km/h (2 Bft) W-SW 247 2,3 C 11,7 km/h (2 Bft)
11.04.2015 21:40 8,5 C 8,1 C 65 % 1026,6 hPa 0,0 mm 8,3 km/h (2 Bft) W 270 2,3 C 13,5 km/h (3 Bft)
11.04.2015 21:45 8,2 C 8,0 C 65 % 1026,8 hPa 0,0 mm 7,3 km/h (2 Bft) SW 225 2,0 C 9,3 km/h (2 Bft)
11.04.2015 21:50 8,1 C 7,9 C 65 % 1026,8 hPa 0,0 mm 7,0 km/h (2 Bft) W-SW 247 1,9 C 7,3 km/h (2 Bft)
11.04.2015 21:55 8,1 C 7,9 C 65 % 1026,8 hPa 0,0 mm 6,7 km/h (2 Bft) W-SW 247 1,9 C 6,2 km/h (2 Bft)
11.04.2015 22:00 8,0 C 7,8 C 65 % 1026,8 hPa 0,0 mm 6,5 km/h (2 Bft) W-SW 247 1,8 C 6,5 km/h (2 Bft)
11.04.2015 22:05 8,0 C 7,8 C 65 % 1027,0 hPa 0,0 mm 5,4 km/h (1 Bft) O-SO 112 1,8 C 7,0 km/h (2 Bft)
11.04.2015 22:10 8,0 C 7,8 C 65 % 1027,0 hPa 0,0 mm 5,4 km/h (1 Bft) W 270 1,8 C 7,3 km/h (2 Bft)
11.04.2015 22:15 8,0 C 7,8 C 65 % 1027,0 hPa 0,0 mm 5,7 km/h (1 Bft) S 180 1,8 C 5,7 km/h (1 Bft)
11.04.2015 22:20 8,0 C 7,8 C 65 % 1027,0 hPa 0,0 mm 5,4 km/h (1 Bft) SW 225 1,8 C 7,5 km/h (2 Bft)
11.04.2015 22:25 8,1 C 7,9 C 65 % 1027,1 hPa 0,0 mm 6,0 km/h (2 Bft) SW 225 1,9 C 8,8 km/h (2 Bft)
11.04.2015 22:30 8,3 C 8,0 C 66 % 1027,1 hPa 0,0 mm 7,0 km/h (2 Bft) W-SW 247 2,3 C 8,8 km/h (2 Bft)
11.04.2015 22:35 8,2 C 7,9 C 66 % 1027,1 hPa 0,0 mm 7,8 km/h (2 Bft) SW 225 2,2 C 9,6 km/h (2 Bft)
11.04.2015 22:40 8,2 C 7,9 C 66 % 1027,1 hPa 0,0 mm 8,0 km/h (2 Bft) SW 225 2,2 C 11,9 km/h (2 Bft)
11.04.2015 22:45 8,4 C 8,0 C 66 % 1027,2 hPa 0,0 mm 8,5 km/h (2 Bft) SW 225 2,4 C 8,3 km/h (2 Bft)
11.04.2015 22:50 8,5 C 8,0 C 65 % 1027,2 hPa 0,0 mm 9,3 km/h (2 Bft) W-SW 247 2,3 C 7,5 km/h (2 Bft)
11.04.2015 22:55 8,4 C 8,0 C 65 % 1027,2 hPa 0,0 mm 8,8 km/h (2 Bft) SW 225 2,2 C 7,5 km/h (2 Bft)
11.04.2015 23:00 8,4 C 8,0 C 65 % 1027,2 hPa 0,0 mm 8,5 km/h (2 Bft) W-SW 247 2,2 C 15,5 km/h (3 Bft)
11.04.2015 23:05 8,4 C 8,0 C 64 % 1027,2 hPa 0,0 mm 8,0 km/h (2 Bft) W-SW 247 2,0 C 6,7 km/h (2 Bft)
11.04.2015 23:10 8,3 C 7,9 C 64 % 1027,2 hPa 0,0 mm 8,0 km/h (2 Bft) SW 225 1,9 C 7,3 km/h (2 Bft)
11.04.2015 23:15 8,3 C 8,1 C 64 % 1027,2 hPa 0,0 mm 6,5 km/h (2 Bft) S-SW 202 1,9 C 3,4 km/h (1 Bft)
11.04.2015 23:20 8,3 C 8,2 C 64 % 1027,2 hPa 0,0 mm 4,7 km/h (1 Bft) SW 225 1,9 C 3,9 km/h (1 Bft)
11.04.2015 23:25 8,1 C 8,0 C 64 % 1027,5 hPa 0,0 mm 1,6 km/h (1 Bft) S 180 1,7 C 4,1 km/h (1 Bft)
11.04.2015 23:30 8,3 C 8,1 C 65 % 1027,5 hPa 0,0 mm 2,3 km/h (1 Bft) SW 225 2,1 C 8,3 km/h (2 Bft)
11.04.2015 23:35 8,7 C 8,5 C 64 % 1027,5 hPa 0,0 mm 4,7 km/h (1 Bft) SW 225 2,3 C 6,5 km/h (2 Bft)
11.04.2015 23:40 8,8 C 8,6 C 64 % 1027,5 hPa 0,0 mm 4,7 km/h (1 Bft) SW 225 2,4 C 3,4 km/h (1 Bft)
11.04.2015 23:45 8,4 C 8,5 C 64 % 1027,8 hPa 0,0 mm 2,6 km/h (1 Bft) W-SW 247 2,0 C 0,0 km/h (0 Bft)
11.04.2015 23:50 8,5 C 8,5 C 64 % 1027,8 hPa 0,0 mm 1,8 km/h (1 Bft) S-SW 202 2,1 C 4,4 km/h (1 Bft)
11.04.2015 23:55 8,9 C 8,8 C 64 % 1027,8 hPa 0,0 mm 3,4 km/h (1 Bft) SW 225 2,5 C 6,0 km/h (2 Bft)
_ Min-Zeit 00:55 00:55 16:10 03:20 - 03:00 - - 00:55 23:45
Minimum _ 3,9 C 3,6 C 44 % 1020,8 hPa - 0,0 km/h (0 Bft) - - -1,9 C 0,0 km/h (0 Bft)
_ Max-Zeit 14:05 14:05 03:20 23:55 23:55 16:00 - - 13:45 16:05
Maximum _ 16,1 C 19,9 C 69 % 1027,8 hPa 0,0 mm 19,4 km/h
W (3 Bft)
- - 5,1 C 39,1 km/h
W-SW (6 Bft)
Durchschnitt _ 10,6 C 11,3 C 55 % 1023,7 hPa #0,0 mm 8,9 km/h (2 Bft) W-SW - 1,8 C 11,7 km/h (2 Bft)